Flag for Germany Weather past 2 weeks in Osnabrück, Lower Saxony, Germany

Now
48 °F

Sunny.


Feels Like: 46 °F
Forecast: 46 / 61 °F
Wind: 5 mph from West

Location: Muenster / Osnabrueck

Current Time: May 27, 2015 at 6:59:34 AM

Latest Report: May 27, 2015 at 6:20 AM


Visibility: 10 mi

Pressure: 30.21 "Hg

Humidity: 82%

Dew point: 43 °F

Location of OsnabrückLocation

Historic Weather in Osnabrück — Graph

°F

Osnabrück temperature yesterday

Maximum temperature yesterday: 57 °F (at 1:20 PM)
Minimum temperature yesterday: 46 °F (at 5:20 AM)
Average temperature yesterday: 52 °F

Past Weeks' High & Low Weather Summary

 TemperatureHumidityPressure
High72 °F (May 12, 11:20 AM)100% (May 13, 6:20 AM)30.33 "Hg (May 13, 6:20 AM)
Low37 °F (May 16, 5:20 AM)38% (May 12, 1:50 PM)29.59 "Hg (May 18, 7:20 PM)
Average53 °F70%30.05 "Hg
* Reported May 12 5:20 AM — May 27 5:50 AM, Osnabrück, Weather by CustomWeather, © 2015

Note: Actual official high and low records may vary slightly from our data, if they occured in-between our weather recording intervals... More about our weather records

Advertising

Osnabrück weather history for previous 24 hours

 ConditionsComfort  
Time TempWeatherWind HumidityBarometerVisibility
5:50 AM
Wed, May 27
48 °FClear.5 mph82%30.21 "Hg10 mi
5:20 AM48 °FClear.5 mph82%30.21 "Hg10 mi
4:50 AM48 °FClear.5 mph82%30.21 "Hg10 mi
4:20 AM48 °FClear.5 mph82%30.24 "Hg10 mi
3:50 AM48 °FClear.5 mph82%30.24 "Hg10 mi
3:20 AM48 °FClear.5 mph82%30.24 "Hg10 mi
2:50 AM48 °FClear.3 mph82%30.21 "Hg10 mi
2:20 AM48 °FClear.6 mph82%30.21 "Hg10 mi
1:50 AM48 °FClear.3 mph76%30.21 "Hg10 mi
1:20 AM50 °FPassing clouds.5 mph71%30.21 "HgN/A
12:50 AM50 °FPassing clouds.7 mph71%30.21 "HgN/A
12:20 AM50 °FPassing clouds.7 mph71%30.21 "HgN/A
11:20 PM
Tue, May 26
50 °FPassing clouds.6 mph71%30.21 "HgN/A
10:50 PM50 °FClear.6 mph71%30.21 "Hg10 mi
10:20 PM50 °FSunny.6 mph71%30.21 "Hg10 mi
9:50 PM52 °FPartly sunny.8 mph62%30.21 "HgN/A
9:20 PM52 °FPartly sunny.8 mph67%30.18 "HgN/A
8:50 PM52 °FPartly sunny.8 mph67%30.18 "HgN/A
8:20 PM54 °FPartly sunny.12 mph63%30.18 "HgN/A
7:50 PM54 °FBroken clouds.10 mph67%30.15 "HgN/A
7:20 PM54 °FBroken clouds.6 mph77%30.15 "HgN/A
6:50 PM52 °FSprinkles. Broken clouds.12 mph77%30.15 "HgN/A
6:20 PM55 °FBroken clouds.8 mph59%30.12 "HgN/A
5:50 PM57 °FPartly sunny.12 mph51%30.12 "HgN/A
5:20 PM55 °FPartly sunny.13 mph59%30.12 "HgN/A
4:50 PM57 °FBroken clouds.12 mph55%30.12 "HgN/A
4:20 PM55 °FBroken clouds.8 mph59%30.12 "HgN/A
3:50 PM57 °FBroken clouds.9 mph55%30.12 "HgN/A
3:20 PM57 °FPartly sunny.6 mph55%30.09 "HgN/A
2:50 PM55 °FPartly sunny.10 mph55%30.09 "HgN/A
2:20 PM54 °FPartly sunny.12 mph58%30.09 "HgN/A
1:50 PM54 °FPartly sunny.6 mph67%30.09 "HgN/A
1:20 PM57 °FBroken clouds.10 mph67%30.09 "HgN/A
12:50 PM55 °FBroken clouds.12 mph67%30.09 "HgN/A
12:20 PM54 °FScattered clouds.8 mph72%30.09 "HgN/A
11:50 AM52 °FPartly sunny.7 mph82%30.09 "HgN/A
11:20 AM50 °FSprinkles. Broken clouds.9 mph88%30.09 "HgN/A
10:50 AM54 °FPartly sunny.9 mph58%30.09 "HgN/A
10:20 AM54 °FBroken clouds.10 mph58%30.07 "HgN/A
9:50 AM54 °FBroken clouds.8 mph63%30.09 "HgN/A
9:20 AM52 °FPartly sunny.7 mph72%30.09 "HgN/A
8:50 AM52 °FBroken clouds.8 mph72%30.07 "HgN/A
8:20 AM52 °FBroken clouds.8 mph77%30.07 "HgN/A
7:50 AM50 °FScattered clouds.6 mph76%30.07 "HgN/A
7:20 AM48 °FSunny.6 mph87%30.07 "Hg10 mi
6:50 AM46 °FScattered clouds.6 mph87%30.07 "HgN/A
6:20 AM46 °FPartly sunny.5 mph87%30.04 "HgN/A
Weather by CustomWeather, © 2015

See weather overviewHow to use our weather pages